IRIDIUM 33 DEB, 33881

Orbit data source: Space-Track

IRIDIUM 33 DEB, 33881 is space debris in LEO originally from a launch on Sun, 14 Sep 1997 UTC launched from the Tyuratam Missile And Space Complex (TTMTR). The debris from Iridium 33, an American commercial communications satellite, has been tracked extensively since its accidental collision with the defunct Russian satellite Cosmos 2251 in 2009. This event, occurring at high speed in low Earth orbit (LEO), generated thousands of pieces of space debris, significantly increasing the risk of further collisions. The Iridium 33 debris cloud has impacted space traffic management and orbital debris mitigation strategies, making it a subject of ongoing study in space situational awareness.

Loading next visibility...
Identifier
33881, 1997-051BA
Orbit
LEO
Country
Flag of USUS
Related business
Manufacturer
Unknown
Mission
Spacecraft
Bus & Motor
Unknown
Mass
Unknown
Launch date (UTC)
1997-09-14 (29 years ago)
Launch vehicle
Unknown
Launch site
Tyuratam Missile And Space Complex (TTMTR)
Object type
Payload
Rocket body
Debris
Shape & HBR
Unknown shape, 0.1 m
Radar Cross Section
Small (<0.1 m²)

Expand to show TLE details & history
Last TLE update: 15 hours ago

TLE from 15 hours ago
0 IRIDIUM 33 DEB
1 33881U 97051BA  26133.25860659  .00007217  00000-0  14274-2 0  9998
2 33881  86.3846  40.6227 0061327  23.3842  98.2053 14.61033320897095
Epoch: 2026-05-13T06:12Z
TLE epoch observation values (Epoch: 2026-05-13T06:12:23.609Z)
Latitude
57.63369°
Longitude
-109.1875°
Altitude
706.079 km
Speed
7.505 km/s
True Right ascension
14h 19m 43s
True Declination
57° 28' 37"
Sunlit
Object was in daylight at epoch
Visualization orbit readout
Latitude
Unknown
Longitude
Unknown
Altitude
Unknown
Speed
Unknown
Apparent Right ascension
Unknown
Apparent Declination
Unknown
Sunlit
N/A
Visualization observer readout
Local Sidereal Time
05:50:06
Azimuth
Unknown
Elevation
Unknown
Doppler factor
Unknown
Orbital elements
Apogee altitude
730.093 km
Perigee altitude
643.439 km
Semi-major axis
7,064.903 km
Eccentricity
0.00613
Inclination
86.3846°
RAAN
40.6227°
Arg. of periapsis
23.3842°
True anomaly
98.90008°
Mean anomaly
98.2053°
Eccentric anomaly
98.55277°
Mean motion
3.65497 °/min
Orbital period
98.5 mins
BSTAR
0.0014274
Loading maneuver chart data...
Computing Atmospheric mass density...

Documentation

Showing up to 5 results
|